EW7144 Weather Reports


Display with metric or nautical units.
time (UTC)temp
F
wind
direction
speed
MPH
gust
MPH
rain 1hr
in
rain 24hr
in
rain mn
in
humidity
%
barometer
mb
20180620230410 48 156 6.0 22.0 0.00 0.00 0.00 60 1021.0
20180620225410 48 152 10.0 24.0 0.00 0.00 0.00 58 1021.2
20180620224410 48 153 11.0 22.0 0.00 0.00 0.00 58 1021.2
20180620223410 48 172 12.0 24.0 0.00 0.00 0.00 59 1021.3
20180620222410 47 166 9.0 20.0 0.00 0.00 0.00 61 1021.3
20180620221411 47 184 9.0 21.0 0.00 0.00 0.00 60 1021.3
20180620220411 47 161 7.0 25.0 0.00 0.00 0.00 61 1021.3
20180620215410 46 176 7.0 23.0 0.00 0.00 0.00 62 1021.2
20180620214410 46 152 12.0 20.0 0.00 0.00 0.00 62 1021.3
20180620213410 46 162 8.0 21.0 0.00 0.00 0.00 64 1021.3
20180620212410 46 173 9.0 20.0 0.00 0.00 0.00 63 1021.3
20180620211410 45 155 6.0 17.0 0.00 0.00 0.00 65 1021.4
20180620210410 45 152 9.0 20.0 0.00 0.00 0.00 64 1021.4
20180620205410 45 188 6.0 28.0 0.00 0.00 0.00 65 1021.3
20180620204410 45 204 5.0 16.0 0.00 0.00 0.00 64 1021.1
20180620203410 45 160 9.0 22.0 0.00 0.00 0.00 64 1021.2
20180620202410 45 186 7.0 18.0 0.00 0.00 0.00 64 1021.1
20180620201410 45 144 7.0 20.0 0.00 0.00 0.00 65 1021.1
20180620200410 45 160 9.0 21.0 0.00 0.00 0.00 66 1021.1
20180620195410 45 172 7.0 20.0 0.00 0.00 0.00 66 1021.0
20180620194409 45 182 10.0 24.0 0.00 0.00 0.00 66 1020.9
20180620193410 45 160 8.0 20.0 0.00 0.00 0.00 68 1020.9
20180620192410 45 172 5.0 18.0 0.00 0.00 0.00 69 1020.8
20180620191410 45 173 9.0 21.0 0.00 0.00 0.00 68 1020.8
20180620190410 45 181 5.0 21.0 0.00 0.00 0.00 68 1020.7
20180620185410 45 138 6.0 15.0 0.00 0.00 0.00 69 1020.6
20180620184409 45 145 10.0 17.0 0.00 0.00 0.00 69 1020.5
20180620183410 45 259 7.0 14.0 0.00 0.00 0.00 70 1020.7
20180620182410 45 180 3.0 14.0 0.00 0.00 0.00 70 1020.6
20180620181410 45 149 2.0 16.0 0.00 0.00 0.00 70 1020.6
20180620180410 45 126 4.0 13.0 0.00 0.00 0.00 71 1020.6
20180620175410 45 143 5.0 13.0 0.00 0.00 0.00 71 1020.6
20180620174411 45 152 3.0 18.0 0.00 0.00 0.00 72 1020.5
20180620173409 45 151 3.0 16.0 0.00 0.00 0.00 70 1020.5
20180620172410 46 152 8.0 21.0 0.00 0.00 0.00 69 1020.3
20180620171411 45 132 6.0 22.0 0.00 0.00 0.00 72 1020.3
20180620170410 45 155 9.0 20.0 0.00 0.00 0.00 72 1020.4
20180620165410 46 148 6.0 23.0 0.00 0.00 0.00 71 1020.5
20180620164410 46 143 5.0 18.0 0.00 0.00 0.00 72 1020.7
20180620163410 46 143 9.0 22.0 0.00 0.00 0.00 71 1020.4
20180620162410 46 165 8.0 23.0 0.00 0.00 0.00 70 1020.4
20180620161410 46 161 10.0 20.0 0.00 0.00 0.00 70 1020.5
20180620160410 46 153 9.0 25.0 0.00 0.00 0.00 69 1020.4
20180620155409 46 132 10.0 23.0 0.00 0.00 0.00 71 1020.3
20180620154410 46 154 10.0 25.0 0.00 0.00 0.00 70 1020.2
20180620153410 46 155 11.0 26.0 0.00 0.00 0.00 68 1020.3
20180620152410 46 155 12.0 30.0 0.00 0.00 0.00 69 1020.3
20180620151410 46 128 10.0 22.0 0.00 0.00 0.00 70 1020.1
20180620150410 46 145 13.0 43.0 0.00 0.00 0.00 71 1020.1
20180620145410 46 117 12.0 31.0 0.00 0.00 0.00 70 1020.3
20180620144410 46 158 12.0 28.0 0.00 0.00 0.00 71 1020.3
20180620143410 46 143 8.0 22.0 0.00 0.00 0.00 72 1020.5
20180620142410 46 153 9.0 24.0 0.00 0.00 0.00 72 1020.6
20180620141410 47 157 7.0 24.0 0.00 0.00 0.00 72 1020.7
20180620140409 47 121 6.0 23.0 0.00 0.00 0.00 72 1020.7
20180620135410 47 166 10.0 26.0 0.00 0.00 0.00 72 1020.8
20180620134410 47 150 10.0 24.0 0.00 0.00 0.00 72 1020.9
20180620133410 47 159 5.0 25.0 0.00 0.00 0.00 72 1020.9
20180620132410 47 153 7.0 28.0 0.00 0.00 0.00 72 1020.9
20180620131410 47 143 9.0 24.0 0.00 0.00 0.00 72 1020.9
20180620130410 47 143 12.0 26.0 0.00 0.00 0.00 71 1021.0
20180620125410 47 353 6.0 25.0 0.00 0.00 0.00 72 1021.0
20180620124410 48 148 11.0 26.0 0.00 0.00 0.00 71 1021.0
20180620123410 48 120 10.0 25.0 0.00 0.00 0.00 71 1020.8
20180620122409 48 147 10.0 31.0 0.00 0.00 0.00 70 1020.8
20180620121409 48 148 9.0 26.0 0.00 0.00 0.00 72 1020.9
20180620120410 48 150 8.0 20.0 0.00 0.00 0.00 71 1021.3
20180620115411 48 137 7.0 18.0 0.00 0.00 0.00 72 1021.4
20180620114410 48 56 6.0 21.0 0.00 0.00 0.00 71 1021.4
20180620113410 48 117 7.0 22.0 0.00 0.00 0.00 70 1021.5
20180620112409 48 133 10.0 20.0 0.00 0.00 0.00 71 1021.3
20180620111410 48 125 8.0 23.0 0.00 0.00 0.00 72 1021.2
20180620110410 48 173 6.0 24.0 0.00 0.00 0.00 72 1021.2
20180620105410 48 134 7.0 15.0 0.00 0.00 0.00 73 1021.3
20180620104410 48 67 6.0 20.0 0.00 0.00 0.00 72 1021.3
20180620103410 48 75 6.0 20.0 0.00 0.00 0.00 70 1021.3
20180620102410 48 136 6.0 21.0 0.00 0.00 0.00 71 1021.4
20180620101410 48 40 9.0 24.0 0.00 0.00 0.00 71 1021.2
20180620100410 48 76 8.0 31.0 0.00 0.00 0.00 71 1021.4
20180620095410 49 138 9.0 22.0 0.00 0.00 0.00 71 1021.3
20180620094411 49 21 7.0 23.0 0.00 0.00 0.00 72 1021.1
20180620092410 48 91 7.0 17.0 0.00 0.00 0.00 73 1021.5
20180620091411 48 161 5.0 22.0 0.00 0.00 0.00 73 1021.4
20180620090411 48 123 9.0 26.0 0.00 0.00 0.00 72 1021.4
20180620085409 48 130 10.0 26.0 0.00 0.00 0.00 73 1021.4
20180620084410 48 149 7.0 23.0 0.00 0.00 0.00 73 1021.2
20180620083411 49 42 8.0 28.0 0.00 0.00 0.00 73 1021.1
20180620082410 49 141 9.0 23.0 0.00 0.00 0.00 72 1021.0
20180620081410 49 94 12.0 29.0 0.00 0.00 0.00 72 1020.8
20180620080410 49 113 8.0 28.0 0.00 0.00 0.00 72 1020.4
20180620075410 49 142 12.0 35.0 0.00 0.00 0.00 72 1020.5
20180620074410 49 148 9.0 26.0 0.00 0.00 0.00 73 1020.3
20180620073410 49 144 9.0 23.0 0.00 0.00 0.00 76 1020.5
20180620072410 49 71 8.0 30.0 0.00 0.00 0.00 76 1020.7
20180620071410 49 134 7.0 26.0 0.00 0.00 0.00 76 1020.5
20180620070409 49 140 10.0 26.0 0.00 0.00 0.00 76 1020.3
20180620065410 49 77 6.0 22.0 0.00 0.00 0.00 75 1020.3
20180620064410 49 70 9.0 23.0 0.00 0.00 0.00 76 1020.5
20180620063411 49 128 5.0 24.0 0.00 0.00 0.00 77 1020.8
20180620062410 49 128 7.0 20.0 0.00 0.00 0.00 78 1020.9
20180620061410 49 71 5.0 18.0 0.00 0.00 0.00 78 1021.0
20180620060410 49 87 6.0 20.0 0.00 0.00 0.00 78 1020.9
20180620055410 49 129 5.0 12.0 0.00 0.00 0.00 78 1020.9
20180620054410 49 148 4.0 17.0 0.00 0.00 0.00 78 1021.1
20180620053410 49 174 6.0 20.0 0.00 0.00 0.00 78 1021.2
20180620052410 50 109 7.0 21.0 0.00 0.00 0.00 79 1021.2
20180620051410 50 140 5.0 15.0 0.00 0.00 0.00 78 1021.3
20180620050410 50 122 4.0 10.0 0.00 0.00 0.00 77 1021.2
20180620045410 51 108 5.0 14.0 0.00 0.00 0.00 76 1021.1
20180620044410 51 172 3.0 12.0 0.00 0.00 0.00 76 1021.2
20180620043410 51 144 4.0 16.0 0.00 0.00 0.00 76 1021.0
20180620042409 52 139 8.0 17.0 0.00 0.00 0.00 76 1020.9
20180620041409 52 91 7.0 18.0 0.00 0.00 0.00 76 1020.9
20180620040409 52 162 6.0 17.0 0.00 0.00 0.00 75 1020.7
20180620035410 53 31 5.0 13.0 0.00 0.00 0.00 73 1020.6
20180620034410 53 236 3.0 13.0 0.00 0.00 0.00 73 1020.5
20180620033410 53 48 5.0 14.0 0.00 0.00 0.00 72 1020.4
20180620032410 53 126 5.0 20.0 0.00 0.00 0.00 72 1020.3
20180620031409 53 155 7.0 24.0 0.00 0.00 0.00 71 1020.1
20180620030410 53 125 9.0 20.0 0.00 0.00 0.00 68 1020.0
20180620025410 54 114 6.0 16.0 0.00 0.00 0.00 69 1019.9
20180620024409 54 134 7.0 29.0 0.00 0.00 0.00 70 1019.4
20180620023410 53 113 7.0 20.0 0.00 0.00 0.00 67 1019.3
20180620022410 53 128 10.0 30.0 0.00 0.00 0.00 68 1019.3
20180620021410 53 95 9.0 26.0 0.00 0.00 0.00 69 1019.2
20180620020410 53 106 10.0 26.0 0.00 0.00 0.00 67 1019.5
20180620015409 53 79 10.0 32.0 0.00 0.00 0.00 67 1019.3
20180620014409 53 181 9.0 24.0 0.00 0.00 0.00 68 1019.4
20180620013409 53 135 9.0 28.0 0.00 0.00 0.00 68 1019.4
20180620012410 53 101 13.0 25.0 0.00 0.00 0.00 69 1019.5
20180620011410 53 45 6.0 16.0 0.00 0.00 0.00 68 1019.5
20180620000409 53 54 9.0 29.0 0.00 0.00 0.00 66 1020.8
20180619235410 53 103 9.0 25.0 0.00 0.00 0.00 66 1020.8
20180619234410 53 121 7.0 25.0 0.00 0.00 0.00 67 1020.9
20180619233410 53 160 9.0 28.0 0.00 0.00 0.00 66 1021.0
20180619232410 53 133 10.0 26.0 0.00 0.00 0.00 68 1021.2
20180619231410 53 122 9.0 25.0 0.00 0.00 0.00 67 1021.5